www.pogodaiklimat.ru

Погода и климат >> Архив погоды >> Вьетнам >> Камау


ПОГОДА в Камау

  • Прогноз погоды в Камау
  • Монитор погоды в Камау

АРХИВ ПОГОДЫ в Камау

Время (UTC), дата Ветер
(напр.,м/с)
 
Видим.   Явления Облачность Т
(С)
Тd
(С)
f
(%)
Тe
(С)
Тes
(С)
Комфортность P
(гПа)
Po
(гПа)
Тmin
(С)
Tmax
(С)
R
(мм)
R24
(мм)
S
(см)
18 14.09 З 1 10 км в посл. час ливневой дождь 10/10 300 м
[Cu Sc]
+24.2 +23.6 96 +33 +33 очень
душно
1009.3 1009.1 18
21 14.09 штиль 0 10 км слаб. ливневой дождь 10/10 300 м
[Cu Sc]
+24.2 +23.6 96 +33 +33 очень
душно
1008.8 1008.6
00 15.09 штиль 0 20 км в посл. час ливневой дождь 10/10
[Cb cap]
+24.6 +24.1 97 +34 +34 очень
душно
1009.3 1009.1 +24.0 25
03 15.09 З 1 20 км в посл. час ливневой дождь 9/8 600 м
[Cu Sc Ci fib]
+27.8 +24.9 84 +40 +43 очень
душно
1010.5 1010.3
06 15.09 З 2 20 км {ливн. осадки} 9/9 600 м
[Cu Sc]
+28.0 +23.1 75 +38 +40 очень
душно
1008.5 1008.3 0.1
09 15.09 ЮЗ 2 20 км 9/9 600 м
[Cu Sc]
+28.7 +24.4 78 +41 +41 опасность
перегрева
1007.6 1007.4
12 15.09 З 2 20 км 9/9
[Cu Sc]
+27.6 +24.4 83 +39 +39 очень
душно
1009.0 1008.8 +29.0 0.0
15 15.09 ЮЗ 1 20 км 9/9 600 м
[Cu Sc]
+26.4 +24.3 88 +37 +37 очень
душно
1010.7 1010.5
18 15.09 Ю 1 10 км слаб. ливневой дождь 10/10 600 м
[Cu Sc]
+24.2 +23.3 95 +32 +32 очень
душно
1008.3 1008.1 8
21 15.09 штиль 0 10 км {ливн. осадки} 9/9 600 м
[Cu Sc]
+24.6 +24.0 96 +34 +34 очень
душно
1007.8 1007.6
00 16.09 Ю 2 20 км в посл. час ливневой дождь 9/9
[Cu Sc]
+25.4 +24.8 96 +36 +36 очень
душно
1009.0 1008.8 +23.8 9
03 16.09 ЮЗ 3 20 км 9/6 600 м
[Cu med, cong Cs]
+30.8 +24.7 70 +44 +48 опасность
перегрева
1009.3 1009.1
06 16.09 ЮЗ 2 20 км {ливн. осадки} 9/9
[Cu Sc]
+27.3 +25.4 89 +40 +42 очень
душно
1007.2 1007.0 10
09 16.09 ЮЗ 3 20 км 9/8 600 м
[Cu Sc Ci fib]
+29.7 +24.4 73 +42 +42 опасность
перегрева
1006.1 1005.9
12 16.09 ЮЗ 2 20 км 9/9
[Cu Sc]
+27.6 +24.7 84 +39 +39 очень
душно
1007.3 1007.1 +32.5 10
15 16.09 Ю 1 20 км 9/9 600 м
[Cu Sc]
+26.8 +24.8 89 +38 +38 очень
душно
1009.3 1009.1
18 16.09 Ю 1 20 км 9/4 600 м
[Cu med, cong Cs]
+27.0 +25.3 90 +39 +39 очень
душно
1008.3 1008.1
21 16.09 З 2 10 км в посл. час ливневой дождь 9/9 600 м
[Cu Sc]
+24.6 +23.7 95 +33 +33 очень
душно
1008.3 1008.1
00 17.09 Ю 2 20 км {ливн. осадки} 9/6
[Cu Sc Cs]
+25.7 +24.8 95 +36 +37 очень
душно
1009.6 1009.4 +24.3 2
03 17.09 ЮЗ 4 20 км 9/8 600 м
[Cu Sc Ci fib]
+29.6 +24.7 75 +42 +44 опасность
перегрева
1010.2 1010.0
06 17.09 ЮЗ 3 20 км 9/8 600 м
[Cu Sc Ci fib]
+30.6 +24.3 69 +43 +46 опасность
перегрева
1008.2 1008.0 2
09 17.09 З 3 10 км слаб. ливневой дождь 9/9 300 м
[Cb cap]
+27.2 +24.9 87 +39 +39 очень
душно
1007.3 1007.1
12 17.09 ЮЗ 1 20 км {ливн. осадки} 9/4 600 м
[Cu med, cong Cs]
+27.4 +24.2 83 +38 +38 очень
душно
1008.9 1008.7 +32.0 0.3
15 17.09 ЮЗ 1 20 км 9/4 600 м
[Cu med, cong Cs]
+27.2 +24.6 86 +39 +39 очень
душно
1010.0 1009.8
18 17.09 ЮЗ 2 20 км 9/4 600 м
[Cu med, cong Cs]
+27.2 +24.0 83 +38 +38 очень
душно
1009.6 1009.4
21 17.09 ЮЗ 1 4000 м ливневой дождь 9/9 300 м
[Cu Sc]
+24.6 +23.4 93 +33 +33 очень
душно
1008.7 1008.5
00 18.09 Ю 2 10 км слаб. дождь 10/10
[Cu Sc]
+25.3 +24.7 96 +36 +36 очень
душно
1011.1 1010.9 +24.2 8
03 18.09 ЮЗ 2 10 км слаб. дождь 10/10 300 м
[Cu Sc]
+25.0 +23.0 89 +33 +33 очень
душно
1011.6 1011.4
06 18.09 ЮЗ 1 10 км слаб. дождь 10/4 300 м
[Cu med, cong As op]
+25.8 +24.0 90 +36 +38 очень
душно
1010.1 1009.9 10
09 18.09 20 км {дождь} н/о +27.8 +24.3 81 +39 +39 очень
душно
1009.1 1008.9
12 18.09 С 2 20 км {дождь} 10/10 300 м
[Cu Sc]
+26.8 +24.2 86 +37 +37 очень
душно
1010.8 1010.6 +28.5 10
15 18.09 штиль 0 20 км 9/5 1000 м
[Sc Cs]
+25.6 +24.7 95 +36 +36 очень
душно
1012.2 1012.0
18 18.09 штиль 0 20 км 9/9 600 м
[Cu Sc]
+25.6 +24.8 95 +36 +36 очень
душно
1010.8 1010.6
21 18.09 штиль 0 20 км 9/9 600 м
[Cu Sc]
+26.0 +25.2 95 +37 +37 очень
душно
1009.9 1009.7
00 19.09 штиль 0 20 км в посл. час дождь 10/10
[Cu Sc]
+25.0 +24.1 95 +34 +34 очень
душно
1011.5 1011.3 +24.5 0.7
03 19.09 З 2 20 км 9/9 600 м
[Cu Sc]
+28.2 +25.6 86 +42 +43 опасность
перегрева
1012.7 1012.5
06 19.09 Ю 3 20 км 9/9 300 м
[Cu Sc]
+27.5 +22.1 72 +36 +37 очень
душно
1011.1 1010.9 0.7
09 19.09 Ю 2 20 км 9/9 600 м
[Cu Sc]
+29.0 +24.5 77 +41 +42 опасность
перегрева
1008.7 1008.5
12 19.09 штиль 0 20 км 9/9
[Cu Sc]
+27.8 +25.2 86 +40 +40 очень
душно
1010.2 1010.0 +31.0 0.7
15 19.09 штиль 0 20 км 9/4 600 м
[Cu med, cong Cs]
+27.4 +25.7 90 +40 +40 очень
душно
1011.8 1011.6
18 19.09 штиль 0 20 км 9/9 600 м
[Cu Sc]
+27.0 +26.0 94 +40 +40 очень
душно
1010.8 1010.6
21 19.09 Ю 1 20 км 9/6 600 м
[Cu Sc Cs]
+26.4 +25.5 95 +39 +39 очень
душно
1009.9 1009.7
00 20.09 штиль 0 20 км 10/3 600 м
[Cu med, cong Cs]
+26.6 +26.1 97 +40 +41 очень
душно
1011.0 1010.8 +25.8
03 20.09 Ю 2 20 км 9/5 600 м
[Cu med, cong Cs]
+30.2 +24.0 69 +42 +48 опасность
перегрева
1011.8 1011.6
06 20.09 Ю 3 20 км 10/5 600 м
[Cu med, cong Cs]
+31.6 +24.1 65 +44 +50 опасность
перегрева
1010.0 1009.8
09 20.09 Ю 3 20 км 9/4 600 м
[Cu med, cong Cs]
+30.5 +24.0 68 +42 +44 опасность
перегрева
1007.9 1007.7
12 20.09 Ю 3 20 км {ливн. осадки} 9/4 600 м
[Cu med, cong Cs]
+28.6 +23.3 73 +39 +39 очень
душно
1009.8 1009.6 +32.2 0.1
15 20.09 Ю 1 10 км в посл. час ливневой дождь 9/9 600 м
[Cu Sc]
+25.6 +23.8 90 +35 +35 очень
душно
1011.1 1010.9
18 20.09 штиль 0 20 км {ливн. осадки} 9/5 600 м
[Cu Sc Cs]
+26.0 +24.8 93 +37 +37 очень
душно
1009.7 1009.5 2
21 20.09 штиль 0 20 км 9/9 600 м
[Cu Sc]
+26.2 +25.4 95 +38 +38 очень
душно
1008.7 1008.5
00 21.09 штиль 0 20 км 9/9
[Cu Sc]
+26.9 +26.0 95 +40 +40 очень
душно
1010.2 1010.0 +24.8 2
03 21.09 Ю 2 20 км 9/4 600 м
[Cu Sc Cs]
+29.9 +23.3 68 +40 +48 очень
душно
1010.8 1010.6
06 21.09 Ю 4 20 км 9/4 600 м
[Cu med, cong Cs]
+32.1 +24.1 63 +44 +51 опасность
перегрева
1008.3 1008.1 2
09 21.09 Ю 1 20 км в посл. час ливневой дождь 10/10 300 м
[Sc diur, vesp]
+27.7 +25.5 88 +41 +41 опасность
перегрева
1007.1 1006.9
12 21.09 ЮЗ 1 10 км слаб. ливневой дождь 10/10 300 м
[Cb cap]
+28.3 +25.0 82 +41 +41 опасность
перегрева
1009.2 1009.0 +32.8 4

 

Местоположение метеостанции Камау (Вьетнам): широта 9.18 долгота 105.15 высота над уровнем моря 2 м.

В архиве по умолчанию представлена погода в Камау за последнюю неделю. Архивные данные за месяц целиком и за предыдущие месяцы, начиная с января 2011 года, Вы можете получить, выбрав интересующий диапазон дат из раскрывающегося списка и нажав кнопку "Ввод!".


*Определитесь, кто Вы:
робот инопланетянин человек

Внимание! Время в таблицах - всемирное. Для получения местного времени необходимо прибавить поправку, которая равна 7 ч.

Смотрите также архив погоды в соседних городах и на ближайших метеорологических станциях:

Погода в Ратьзя (Вьетнам) (92 км)
Погода в Коншоне (Вьетнам) (169 км)
Погода на Фукуоке (Вьетнам) (174 км)
Погода на Тхочу (Вьетнам) (186 км)
Погода в Хабе (Вьетнам) (237 км)
Погода в Фантхьете (Вьетнам) (377 км)
Погода в Клонг Яй (Таиланд) (380 км)
Погода в Мерсинге (Малайзия) (440 км)
Погода в Кота-Бхару (Малайзия) (461 км)
Погода в Наратхивате (Таиланд) (479 км)

Пояснения к столбцам:

Ветер - указаны скорость ветра в м/с - средняя за 10 мин, порывы в срок и между сроками (в фигурных скобках) и направление, откуда дует ветер: С - северный, СВ - северо-восточный, В - восточный, ЮВ - юго-восточный, Ю - южный, ЮЗ - юго-западный, З - западный, СЗ - северо-западный.
Видимость - горизонтальная дальность видимости в метрах или километрах. При видимости от 1 до 10 км при отсутствии осадков обычно наблюдается дымка, при ухудшении видимости до 1 км и менее - туман. В сухую погоду видимость может ухудшаться дымом, пылью или мглою.
Явления - указаны атмосферные явления, наблюдавшиеся в срок или в последний час перед сроком; фигурными скобками обозначены явления, наблюдавшиеся между сроками (за 1-3 часа до срока); квадратными скобками обозначены град или гололедные отложения с указанием их диаметра в мм.
Облачность - указаны через наклонную черту общая и нижняя облачность в баллах и высота нижней границы облаков в метрах; квадратными скобками обозначены формы облаков: Ci - перистые, Cs - перисто-слоистые, Cc - перисто-кучевые, Ac - высококучевые, As - высокослоистые, Sc - слоисто-кучевые, Ns - слоисто-дождевые, Cu - кучевые, Cb - кучево-дождевые. Подробнее классификацию облаков см. в Атласе облаков (PDF).
T - Температура воздуха - температура, измеренная на высоте 2 м над землей.
Td - Температура точки росы - температура, при понижении до которой содержащийся в воздухе водяной пар достигнет насыщения.
f - Относительная влажность воздуха - влажноcть воздуха, измеренная на высоте 2 м над землей.
Te - Эффективная температура - температура, которую ощущает одетый по сезону человек в тени. Характеристика душности погоды. При расчете учитывается влияние влажности воздуха и скорости ветра на теплоощущения человека.
Tes - Эффективная температура на солнце - температура, которую ощущает человек, с поправкой на солнечный нагрев. Характеристика знойности погоды. Зависит от высоты солнца над горизонтом, облачности и скорости ветра. Ночью, в пасмурную погоду, а также при ветре 12 м/с и более поправка равна нулю.
P - Атмосферное давление - приведенное к уровню моря атмосферное давление.
Po - Атмосферное давление - измеренное на уровне метеостанции атмосферное давление.
Tmin - Минимальная температура - минимум температуры воздуха на высоте 2 м над землей.
Tmax - Максимальная температура - максимум температуры воздуха на высоте 2 м над землей.
R - Количество осадков - Количество выпавших осадков за период времени, мм. При наведении курсора мыши на число - период времени, за который выпало указанное количество осадков.
R24 - Количество осадков - Количество выпавших осадков за 24 часа, мм.
S - Снежный покров - Высота снежного покрова, см. При наведении курсора мыши на число - состояние снежного покрова и степень покрытия местности в баллах.